Powrót do katalogu

RADUGA 1-3

AktywnyŁącznośćGEO
NORAD 22981·PAYLOAD·🇷🇺 Russia

Wystrzelony Feb 5, 1994 z Baikonur Cosmodrome

Loading…

TLE

ŚwieżeSource: Space-Track

Epoka: Sep 13, 2026, 16:52 UTC

1 22981U 94008A   26256.70322657 -.00000316  00000-0  00000-0 0  9997
2 22981  14.1346 347.5407 0002139 235.7349 120.0943  1.00300922119367

Śledź RADUGA 1-3 w czasie rzeczywistym z AllMySat

Download on the App Store